GFSSGP_sfc_rhum_162.txt.gz
RH
35 23 34 39 30 24 18 17 29 29 24 20 25 29 27 36 34 42 52 44 44 46 44 56 80 78 72 78 73 72 71 72 73 75 73 75 76 76 77 74 73 74 78 76 75 74 74 72 72
28 30 38 37 24 18 13 16 31 26 23 27 34 35 30 39 40 48 50 50 44 41 41 42 80 82 77 77 75 75 72 71 72 73 73 75 75 77 76 73 74 78 78 77 75 73 73 72 71
24 31 34 28 21 16 14 22 27 24 34 30 32 37 31 44 41 40 40 48 44 44 42 41 82 84 80 77 76 76 72 71 74 73 73 74 74 77 73 72 75 77 78 77 75 75 74 74 72
30 31 28 28 25 22 17 24 25 26 35 28 34 33 43 45 43 39 42 44 44 45 44 65 85 83 81 80 78 77 75 69 78 71 75 72 75 76 73 74 75 78 79 78 76 76 73 74 74
31 26 22 24 21 21 22 24 24 23 24 25 37 39 43 48 47 44 45 44 45 44 45 50 83 82 81 80 79 78 77 71 77 72 73 75 74 75 74 75 79 79 79 79 76 75 73 73 73
28 26 18 17 15 16 17 20 20 19 17 27 34 32 42 47 49 47 44 44 41 46 48 48 78 84 82 80 80 79 77 73 73 74 78 75 75 75 76 76 78 78 78 78 76 74 72 70 71
27 24 17 20 19 18 16 17 18 18 18 20 26 27 37 47 48 45 44 43 45 50 53 52 59 66 85 82 82 80 76 73 73 74 78 77 78 77 76 78 80 77 78 78 76 75 73 70 71
30 26 24 22 16 19 17 17 17 16 16 24 29 22 24 42 49 47 48 50 53 58 59 58 59 56 55 57 84 82 77 77 75 77 79 82 82 80 80 79 79 79 78 77 77 75 73 71 70
34 27 21 21 23 18 18 18 16 15 16 24 26 18 28 46 56 54 54 52 60 63 58 59 60 61 62 64 64 82 81 82 81 79 83 77 54 59 68 73 81 78 79 78 77 75 74 72 70
31 30 20 21 19 20 19 18 16 17 16 16 16 18 26 49 52 52 54 52 61 66 64 59 60 60 62 56 61 61 63 60 60 61 55 44 44 45 51 69 84 80 79 79 78 76 74 69 44
32 26 24 22 19 24 21 20 17 18 22 16 16 14 23 40 45 42 37 41 48 51 56 60 61 62 65 62 67 64 61 61 62 60 66 68 49 54 52 51 57 68 80 80 75 67 51 43 40
32 24 24 21 22 25 24 20 20 19 19 15 16 14 17 30 32 39 34 31 29 42 55 61 66 63 63 59 54 54 58 58 60 60 66 62 73 64 57 59 53 70 71 75 78 77 57 46 39
31 24 25 25 26 26 23 25 23 20 17 15 16 17 18 22 25 27 28 28 24 27 43 56 63 60 56 61 56 56 58 59 55 61 64 65 67 65 61 63 67 62 64 71 76 67 49 44 41
24 27 25 23 23 22 25 21 21 18 16 16 17 18 16 18 23 28 40 32 26 28 35 46 57 62 59 55 64 66 68 62 61 59 58 64 67 68 65 67 79 70 69 78 76 67 54 47 47
24 28 21 21 20 21 24 25 22 18 15 17 15 15 17 18 20 27 29 25 18 21 36 52 56 58 63 59 66 76 73 70 79 74 77 65 67 65 64 63 62 71 67 84 84 76 60 72 58
24 24 25 19 24 24 26 21 17 16 18 18 16 14 16 18 18 20 23 19 18 21 36 46 50 54 59 57 78 78 70 78 65 67 84 78 77 74 70 69 69 78 86 90 86 74 76 80 62
25 22 22 20 20 22 27 22 20 20 21 21 18 16 16 17 17 17 19 22 21 23 31 38 38 39 53 55 80 81 78 72 74 70 80 63 65 69 78 76 75 85 93 94 93 88 80 92 95
22 25 20 21 20 26 26 27 21 17 16 18 17 16 16 15 16 17 20 24 27 29 30 34 34 34 38 48 73 81 82 80 81 80 76 75 64 69 73 79 80 88 89 95 93 91 86 90 93
23 23 22 19 22 28 23 21 17 16 19 20 18 16 14 14 13 15 24 30 35 39 42 40 41 39 43 42 52 72 82 77 83 78 69 76 75 77 78 77 76 91 90 90 91 94 95 98 97
29 30 27 23 22 27 25 25 20 18 20 19 18 15 14 13 14 20 28 36 38 37 42 45 46 48 49 47 48 50 55 70 74 81 67 68 70 80 71 80 79 86 97 96 96 94 97 97 96
32 33 28 26 25 26 27 31 20 20 18 19 18 18 16 16 15 24 34 40 43 41 48 46 49 51 51 53 54 60 60 64 89 77 63 61 72 78 77 77 79 81 93 97 96 89 87 95 98
37 26 32 36 37 36 27 30 22 24 22 18 17 18 19 20 21 25 41 46 47 51 56 55 56 54 55 54 55 58 54 56 56 59 65 64 61 71 78 76 77 83 86 92 95 90 92 91 97
32 34 37 38 38 35 34 35 19 28 24 18 22 28 35 33 28 36 45 51 52 59 60 60 62 63 62 59 57 55 55 53 56 66 74 73 77 78 78 72 69 77 68 80 92 92 93 91 92
32 38 40 41 39 45 28 31 20 27 22 18 20 32 43 45 38 43 49 53 61 63 65 73 72 70 64 63 64 64 65 64 64 69 82 89 90 87 84 75 67 68 63 62 87 86 91 94 93
39 45 56 56 58 44 33 36 26 25 28 22 22 26 46 47 47 55 61 61 64 67 78 78 78 81 68 66 70 70 72 81 77 80 88 89 88 90 87 77 72 70 67 65 79 86 86 88 94
42 40 63 83 55 58 44 48 30 29 30 31 35 37 53 56 58 70 63 62 63 65 79 78 80 86 82 87 87 82 80 83 80 79 82 82 86 85 85 89 81 75 75 78 80 89 90 91 95
37 49 33 49 52 55 42 32 27 33 28 39 40 52 62 64 79 78 62 61 63 66 78 78 78 82 85 87 83 86 83 78 74 76 73 71 70 72 73 84 94 91 83 80 80 92 91 91 95
31 30 56 68 84 76 40 35 32 35 31 30 41 58 64 80 82 65 62 62 61 63 75 78 74 79 84 83 79 75 76 68 70 72 79 79 80 78 78 73 82 86 90 95 91 97 93 96 96
43 50 41 46 49 44 41 40 27 30 37 51 51 61 66 76 75 65 63 62 62 63 65 74 75 80 83 82 78 79 78 78 78 79 82 80 80 81 84 77 79 84 82 86 96 97 96 97 98
54 67 41 52 51 45 38 34 24 35 51 60 63 64 64 69 75 63 63 63 64 64 62 66 71 70 79 84 84 87 85 81 82 82 80 75 78 86 91 90 86 86 84 82 94 96 96 96 97

GFSSGP_sfc_rhum_165.txt.gz
RH
40 19 22 30 33 23 20 14 13 20 19 16 18 19 21 26 34 53 49 33 33 38 41 55 81 78 74 74 71 70 74 75 75 73 74 75 75 75 75 74 72 72 78 76 75 74 71 70 70
22 18 29 28 27 20 14 11 19 17 17 17 22 24 22 31 32 42 42 39 33 34 38 40 81 82 77 78 74 72 70 72 73 72 72 73 75 75 74 73 75 76 78 76 74 73 72 72 71
21 19 26 30 20 18 15 17 14 19 21 24 25 25 22 35 30 34 36 38 32 32 35 40 81 83 80 79 76 74 71 71 74 73 69 73 74 75 74 73 75 80 78 75 75 74 73 72 72
22 24 19 20 19 17 16 12 20 20 24 23 24 24 28 35 34 32 36 35 35 32 33 70 82 81 81 79 78 76 72 71 76 71 73 71 75 74 73 74 76 80 78 76 76 75 75 72 73
24 23 22 22 16 12 14 15 22 20 24 23 21 27 33 38 37 35 36 35 35 35 35 53 83 82 80 80 80 77 74 70 78 70 74 73 74 75 73 75 76 79 78 77 76 74 74 74 75
25 21 18 17 13 10 10 11 17 20 20 19 28 24 33 40 41 39 37 37 33 36 37 46 81 84 83 80 80 79 77 72 77 73 75 75 74 76 75 76 76 78 79 77 76 73 72 73 72
31 23 19 15 16 14 10 11 14 17 18 17 20 23 27 35 37 35 34 33 34 36 41 46 57 69 85 83 81 81 78 74 72 75 78 76 76 77 76 77 79 80 78 78 76 74 71 70 72
28 25 20 18 16 15 11 12 13 16 17 15 18 21 22 28 38 35 34 37 38 41 43 44 52 53 58 60 83 83 81 76 75 76 80 81 80 78 79 79 78 78 78 77 78 74 72 71 71
24 25 21 17 18 16 13 14 14 13 15 16 19 17 21 28 41 42 42 41 47 48 47 48 58 62 64 64 68 81 81 81 81 79 82 79 56 62 68 70 81 80 78 79 78 75 74 72 71
26 26 19 15 15 16 13 15 12 16 16 16 16 14 19 30 33 34 42 42 50 53 49 42 44 56 60 56 67 66 66 62 64 59 57 48 48 61 52 68 82 81 81 81 80 77 76 73 50
24 27 17 18 16 15 18 15 14 16 18 14 15 14 16 26 27 27 28 33 39 44 50 45 50 53 63 66 74 77 83 81 68 62 64 58 53 64 47 57 59 65 80 79 80 72 58 52 47
27 20 18 18 15 18 19 15 15 16 16 12 14 12 12 18 20 24 23 24 26 30 46 47 52 52 52 61 54 57 71 78 78 76 69 64 60 56 54 70 81 77 65 66 76 68 62 54 40
23 21 15 17 19 20 18 19 18 17 13 12 13 14 15 13 16 18 20 18 20 22 37 42 48 48 46 50 45 45 45 49 47 59 64 71 81 74 70 71 61 68 68 76 84 72 72 52 39
15 20 19 18 18 18 19 18 18 15 12 12 14 15 14 14 14 15 19 19 19 19 27 35 40 46 42 42 43 44 44 42 44 44 47 55 63 65 63 70 69 68 76 86 82 79 76 46 39
18 22 18 16 16 18 16 22 20 14 12 13 12 11 13 13 13 13 16 20 19 17 19 30 36 42 47 45 45 58 57 58 49 48 47 46 47 54 55 58 62 63 69 76 79 72 72 46 46
20 18 23 15 17 15 21 22 12 12 11 14 12 11 12 12 12 12 15 19 19 15 18 30 34 40 47 44 48 54 55 60 62 57 67 68 57 64 54 53 60 69 72 81 86 76 75 63 59
20 23 21 17 15 16 22 22 13 15 15 16 14 13 12 12 12 13 13 18 17 16 18 30 37 39 43 44 58 68 58 56 53 46 59 64 62 59 69 62 67 76 94 93 92 90 80 76 78
22 18 17 19 14 18 21 20 17 15 16 16 14 13 12 12 11 13 14 16 18 19 21 29 36 36 40 46 54 69 63 62 59 64 71 65 55 55 59 72 67 72 92 97 96 94 93 91 90
20 21 21 18 13 17 21 22 18 15 14 14 14 11 11 11 11 12 14 15 20 23 26 30 35 32 35 38 45 65 67 64 63 69 71 63 59 58 61 68 71 73 86 94 95 97 96 98 90
23 25 25 20 17 18 21 22 18 17 17 16 14 12 12 10 10 11 13 17 22 26 31 34 35 37 40 39 38 39 46 52 54 58 69 61 60 73 63 72 70 79 84 84 94 95 98 98 92
30 30 28 25 21 20 22 25 21 15 14 15 14 14 13 13 11 11 15 22 28 28 33 36 39 40 42 44 45 52 50 56 61 63 70 59 55 67 67 63 73 78 84 91 95 95 95 98 97
35 24 25 27 31 34 20 33 22 16 15 14 14 14 15 16 15 13 19 26 31 31 37 38 40 43 43 48 49 53 54 58 55 58 62 58 52 57 76 73 74 82 87 90 95 94 94 95 96
30 24 27 31 32 31 29 32 23 16 16 15 14 22 23 19 18 17 22 31 34 38 46 46 48 50 51 52 52 52 54 48 49 53 60 61 62 59 70 72 72 73 84 82 86 90 92 91 95
23 29 33 35 37 44 27 29 26 20 17 16 16 21 30 32 26 20 30 36 42 50 52 55 55 57 57 58 58 58 58 56 54 59 62 68 79 81 74 72 77 69 74 84 79 87 92 92 91
28 34 55 53 54 48 23 32 27 18 20 22 18 21 32 35 31 36 43 48 54 58 64 60 66 63 58 57 58 58 60 60 63 59 69 80 87 89 90 74 70 73 66 70 86 90 91 92 94
29 35 54 79 49 47 35 48 33 20 23 25 24 27 35 41 39 47 52 54 57 61 68 68 71 72 67 73 76 74 81 80 74 78 75 75 72 72 78 86 79 78 64 78 84 84 90 91 94
32 43 33 44 36 47 42 30 24 22 22 28 29 40 43 47 53 55 53 53 55 68 73 73 70 74 72 76 79 80 79 73 70 71 68 67 63 67 70 76 76 81 82 74 80 93 94 94 93
29 27 51 60 95 69 34 27 27 28 25 35 37 49 52 62 74 58 55 54 52 65 73 74 72 73 75 76 71 72 66 61 62 62 68 71 75 74 72 77 84 86 79 74 81 93 90 94 96
24 36 36 58 59 44 36 24 18 23 31 43 49 54 58 77 71 56 54 53 55 75 72 77 75 74 72 74 77 76 75 67 67 68 71 70 70 73 77 77 79 85 88 87 90 94 95 98 97
30 66 82 99 64 49 36 25 21 27 45 48 56 58 58 72 60 56 55 53 57 69 73 69 68 64 68 73 77 78 75 73 77 78 75 74 78 82 85 82 84 81 79 81 87 98 99 98 99

GFSSGP_sfc_rhum_168.txt.gz
RH
50 29 31 55 66 53 43 32 21 26 23 20 21 23 32 41 50 83 64 45 46 56 60 74 82 77 73 70 72 75 77 75 74 76 77 76 76 77 76 75 74 75 78 76 74 72 68 71 69
42 19 50 60 54 49 34 21 24 24 24 21 23 27 27 50 46 58 57 40 41 47 56 67 84 81 76 75 71 71 74 75 75 73 73 76 76 76 75 74 74 77 78 75 74 74 73 70 67
32 20 54 53 45 38 34 26 22 23 22 28 31 30 33 42 38 48 46 38 37 44 47 63 85 82 81 79 75 72 69 72 73 71 72 74 75 75 74 74 75 78 77 76 76 75 72 70 69
32 44 41 42 36 28 27 19 24 23 24 26 26 34 41 39 41 43 43 36 38 41 44 82 84 84 82 80 78 74 70 71 74 74 70 74 75 75 74 74 77 79 78 77 77 76 73 73 78
35 48 49 42 32 21 17 18 26 25 22 26 25 36 49 46 41 41 43 38 38 40 65 73 84 83 83 83 79 76 72 71 78 71 75 72 75 74 75 76 78 81 79 77 76 75 75 76 75
51 38 42 33 25 17 14 17 20 25 21 25 30 31 50 46 44 44 42 42 39 44 56 65 83 86 84 83 81 78 76 71 78 72 73 77 75 76 76 77 78 81 80 78 76 75 74 74 73
51 52 39 31 25 21 16 14 18 22 22 22 24 32 53 52 48 45 46 45 41 44 58 69 78 81 86 85 84 80 79 75 77 75 78 78 79 80 78 79 78 81 80 79 76 73 74 74 72
50 47 37 33 28 27 17 17 15 18 21 20 22 32 45 46 44 42 41 44 46 49 57 66 71 75 79 85 84 84 82 81 79 80 82 83 84 82 82 82 79 79 80 80 78 74 71 74 71
41 53 41 30 26 29 17 23 14 17 18 24 22 26 33 44 46 49 50 50 59 56 56 65 64 67 74 77 83 85 83 82 82 84 85 87 86 86 84 83 84 80 80 81 78 75 74 74 71
44 50 34 24 24 23 18 22 17 21 20 20 21 23 27 41 47 51 58 60 64 66 64 65 70 70 70 67 89 86 87 89 88 82 83 85 72 83 74 79 82 82 81 82 82 77 76 75 75
37 44 27 23 20 20 20 20 17 20 27 21 22 20 25 38 41 40 44 49 59 62 66 59 68 71 79 84 92 95 94 94 88 82 82 81 68 66 65 90 86 96 88 96 90 87 81 79 66
34 25 24 24 20 20 22 19 20 21 24 18 18 20 22 30 33 33 34 38 43 57 63 60 64 70 73 84 82 92 94 93 94 91 88 93 95 84 87 91 93 93 96 93 96 96 89 69 55
24 22 21 20 21 23 21 25 24 21 18 16 15 19 20 21 25 26 29 29 35 46 60 65 62 65 67 70 76 78 87 86 85 86 86 90 92 92 93 92 93 92 93 90 96 94 94 84 57
22 20 20 21 21 20 23 24 23 20 18 15 15 18 19 20 19 19 24 28 28 32 53 59 61 64 62 67 64 64 60 70 72 83 82 79 87 89 87 87 83 88 92 94 95 96 95 90 56
21 26 24 22 18 20 20 25 24 17 16 16 16 15 17 20 19 18 18 26 25 27 40 50 60 63 63 59 65 75 76 76 78 81 74 66 77 78 75 74 76 84 89 88 90 94 94 85 66
25 26 33 20 20 22 22 35 23 16 19 18 16 16 17 17 17 16 17 21 24 28 34 42 44 60 62 62 76 75 76 83 83 82 89 82 80 75 83 78 74 90 91 95 96 96 95 83 83
31 33 28 25 20 23 27 35 23 19 19 20 20 19 17 16 16 16 18 19 28 27 28 45 50 56 63 61 80 83 78 82 83 81 90 83 81 80 86 87 90 96 98 98 97 94 90 92 95
37 29 23 26 22 21 26 28 22 19 19 23 22 20 19 17 16 16 19 20 29 29 36 51 54 53 58 70 83 88 85 83 81 84 87 82 83 75 83 88 85 90 98 99 98 96 97 96 98
27 27 29 25 20 22 24 23 22 21 22 20 21 19 16 14 13 15 19 23 30 33 38 49 57 54 67 73 86 95 95 89 87 89 83 85 82 74 82 90 86 91 97 97 96 96 96 99 97
28 29 31 27 22 21 24 26 24 21 21 20 19 19 18 17 15 15 21 23 31 33 40 51 54 55 59 64 67 82 82 84 84 86 90 85 81 82 80 86 77 85 97 97 97 95 99 99 98
31 30 32 33 27 25 29 33 28 20 18 18 18 17 17 18 16 15 18 21 31 34 44 48 54 55 61 60 68 73 73 79 84 85 91 85 80 88 87 86 77 86 96 98 97 95 96 99 98
34 26 28 31 35 46 29 47 31 22 21 20 20 20 28 26 22 23 23 32 32 42 51 51 56 56 60 64 70 75 81 86 86 86 86 86 78 87 86 85 72 84 94 97 95 95 96 96 98
30 29 32 34 41 42 40 45 32 26 26 22 18 34 33 35 32 27 35 38 44 53 57 58 62 64 68 70 70 77 78 79 78 77 86 84 79 85 88 87 73 90 94 96 95 96 96 97 96
27 30 34 42 49 62 43 43 39 30 26 23 23 32 37 38 37 31 41 44 62 63 67 68 69 72 73 74 72 75 77 76 77 80 87 95 95 94 87 84 89 86 92 95 95 95 96 96 96
33 42 70 71 78 71 36 40 32 29 31 30 30 32 42 40 43 47 57 60 70 72 75 72 77 79 77 79 79 78 80 80 78 81 92 93 88 88 87 88 88 83 84 94 93 96 97 95 96
29 37 68 86 74 71 38 63 44 31 30 32 34 33 47 48 43 60 65 71 70 79 79 80 81 82 86 89 90 93 92 94 94 92 92 80 81 84 88 90 90 86 84 92 95 95 96 95 96
33 40 43 60 50 67 57 38 30 34 29 34 36 47 52 54 61 67 66 70 79 75 75 75 73 75 80 80 81 77 85 84 82 83 83 85 82 80 84 88 88 88 86 89 96 98 97 96 95
29 25 49 73 99 94 60 46 38 30 30 45 45 57 62 76 70 66 66 66 79 77 80 79 80 81 81 80 81 84 86 74 74 74 84 85 90 83 79 82 86 90 89 88 94 98 98 97 98
29 42 47 84 77 89 74 58 26 41 44 56 60 60 85 85 77 73 64 69 77 83 84 84 81 81 86 87 82 90 83 78 81 85 87 86 83 80 79 84 87 92 93 93 93 98 98 97 98
20 31 81 97 85 91 98 74 68 76 57 64 68 71 82 80 76 69 66 81 80 80 84 83 80 79 82 82 83 84 81 77 83 93 85 76 85 88 91 90 88 88 89 91 96 99 98 99 99

GFSSGP_sfc_rhum_171.txt.gz
RH
58 49 49 58 56 59 52 39 25 26 26 27 30 37 58 62 64 78 72 65 74 77 78 76 80 76 74 74 76 76 76 77 79 79 78 77 77 76 77 76 76 78 78 74 72 71 70 67 67
55 38 56 64 55 64 50 30 31 31 35 28 30 35 50 67 61 70 65 66 67 71 79 77 82 79 74 73 74 77 78 76 75 75 76 78 77 76 76 75 76 78 76 75 75 74 70 66 72
49 33 54 57 60 47 40 28 34 30 29 33 37 36 48 62 58 63 56 54 60 70 74 79 84 82 80 75 72 72 75 75 74 74 74 76 76 76 75 75 76 78 77 77 76 74 72 71 78
42 50 50 47 48 38 25 24 28 27 26 30 35 57 52 53 53 55 45 46 60 65 71 86 86 84 83 78 76 73 71 73 77 72 72 76 76 76 75 76 77 79 78 78 77 74 75 78 77
43 60 63 53 37 27 26 18 26 30 30 32 33 49 63 54 51 52 47 44 57 55 75 83 87 82 83 80 78 74 72 75 76 76 74 75 76 75 77 77 79 82 79 78 76 76 76 75 74
51 51 53 54 40 26 22 18 22 26 28 27 34 55 67 54 54 52 49 46 55 65 71 77 86 84 87 82 80 77 73 74 78 72 76 76 76 76 79 79 78 82 79 78 76 76 74 73 71
54 60 61 46 38 29 22 18 27 33 27 26 28 42 72 60 56 52 51 51 60 63 70 75 85 84 88 86 86 82 77 74 80 76 78 80 79 80 80 79 76 81 81 79 76 75 74 72 70
55 56 52 46 38 30 21 21 18 22 28 21 26 44 76 62 53 52 50 51 58 66 74 85 91 87 92 93 88 86 84 79 79 80 85 84 86 84 84 83 80 80 82 79 76 75 75 72 69
43 58 57 41 35 30 22 21 18 19 23 20 24 34 51 54 54 59 62 63 69 73 78 81 86 88 91 92 88 86 84 84 83 86 87 89 94 90 87 88 84 79 81 80 77 74 75 73 70
52 59 41 31 32 31 24 25 24 21 22 23 24 41 52 54 58 60 65 72 74 76 82 77 79 83 86 78 94 94 92 94 94 92 94 97 93 94 85 87 86 83 82 81 79 76 76 76 80
46 51 36 30 29 28 27 23 23 25 27 24 25 33 52 55 60 61 64 68 72 70 76 73 76 81 87 91 97 98 98 98 97 91 92 92 80 87 92 97 90 96 90 97 91 89 88 88 79
44 37 35 32 28 26 28 26 26 27 26 22 24 22 31 56 56 56 59 61 70 69 68 73 76 79 84 91 91 94 97 98 98 97 90 96 95 93 96 98 97 97 99 98 97 98 94 85 78
35 31 27 27 28 28 24 28 28 27 24 22 20 21 29 41 44 42 42 48 61 64 66 71 79 80 80 83 88 90 94 91 89 91 90 94 95 94 97 98 96 99 98 98 98 98 97 94 81
28 28 28 24 25 26 26 30 30 26 24 22 20 20 21 25 23 25 27 37 56 61 65 67 72 78 78 80 85 85 90 89 91 91 88 87 93 93 90 92 93 95 96 97 98 97 96 93 72
28 32 31 27 27 27 28 30 28 22 23 22 21 20 19 21 23 21 21 25 34 59 63 68 71 75 76 77 78 82 84 82 85 88 85 87 88 89 88 90 92 95 95 93 96 95 96 87 72
37 39 46 30 27 25 26 37 27 25 24 23 24 24 20 20 23 23 21 21 31 57 62 64 57 68 70 73 77 83 84 89 87 90 92 88 84 85 91 86 90 95 95 96 97 98 98 94 88
50 53 40 33 25 26 29 37 25 25 22 23 23 24 22 21 21 23 22 21 28 42 56 63 65 66 72 80 87 86 87 90 88 93 96 88 86 85 92 93 97 96 98 98 97 98 96 98 98
57 52 38 37 26 25 33 34 30 24 22 23 25 23 23 23 21 19 22 23 30 38 49 57 64 66 75 87 93 93 91 93 92 96 94 89 90 88 90 94 97 98 99 99 98 96 97 97 98
41 42 42 33 27 31 34 33 29 24 25 26 26 26 24 22 17 17 21 24 37 44 53 59 67 74 83 92 97 96 96 95 95 95 88 86 88 84 91 94 93 97 98 98 96 97 96 99 96
42 44 44 36 30 30 32 32 30 28 26 22 23 24 21 20 19 18 22 30 36 50 56 64 62 72 81 89 97 95 96 95 93 95 91 90 89 87 86 93 93 97 99 98 97 95 99 99 98
41 46 42 38 36 36 38 37 35 30 27 23 20 18 20 22 20 19 21 32 38 44 54 59 60 63 70 71 82 86 86 94 92 97 97 94 89 89 88 89 90 94 98 99 98 96 95 99 99
45 34 35 40 46 54 38 56 38 35 29 23 22 22 24 31 29 25 24 35 35 38 52 56 58 61 65 73 77 79 85 92 93 91 93 91 86 93 93 91 83 86 96 99 97 96 96 96 98
40 38 39 41 51 58 49 61 43 36 33 28 24 34 40 40 34 31 46 38 48 53 59 62 66 67 73 74 78 83 86 87 89 93 89 91 90 91 92 90 84 84 95 96 96 97 96 95 97
32 37 43 48 57 71 49 58 46 47 34 28 39 44 42 41 37 43 63 67 72 71 73 72 76 80 78 77 78 82 83 85 91 94 96 98 98 97 94 90 92 93 94 96 96 95 95 97 97
31 45 82 81 86 66 47 58 46 38 33 26 36 47 48 44 46 64 76 73 76 80 82 79 81 85 80 78 82 85 86 86 86 92 98 96 96 96 87 90 94 95 88 94 98 97 97 98 97
35 38 77 96 93 83 53 76 50 36 33 36 36 51 53 48 59 75 78 86 83 87 88 88 88 91 92 95 96 95 93 97 96 95 96 96 95 92 84 91 92 86 90 96 98 99 98 97 98
33 49 35 73 87 98 85 64 43 52 50 39 46 57 65 60 74 81 81 87 86 88 89 85 88 90 92 92 92 92 93 92 94 92 93 93 87 86 89 88 90 87 88 95 97 99 99 98 98
26 23 61 82 98 88 79 63 81 90 90 83 71 66 78 84 84 81 87 88 83 81 80 79 80 82 84 84 80 75 79 82 83 83 86 87 87 85 84 87 90 91 90 92 97 98 98 98 99
32 32 33 72 92 99 83 85 78 87 82 82 87 89 93 88 85 82 91 86 85 84 87 88 86 86 90 88 87 85 86 84 83 84 85 84 87 83 81 85 89 91 92 93 97 98 99 98 99
27 35 68 95 88 88 96 82 85 86 79 76 74 72 87 85 83 86 87 84 85 88 88 87 85 89 89 87 86 86 84 85 94 94 87 83 89 90 91 88 88 91 93 94 96 98 99 99 99

GFSSGP_sfc_rhum_174.txt.gz
RH
61 54 55 62 59 57 47 41 37 28 36 32 36 50 63 70 66 70 79 79 80 82 79 78 79 75 74 74 75 78 79 81 79 78 77 77 76 77 76 76 78 78 74 73 72 70 66 73 77
61 41 62 67 55 60 46 37 34 39 34 34 44 55 59 68 68 78 83 77 74 78 80 79 80 79 75 75 75 76 77 77 79 79 76 76 77 77 76 76 78 78 75 75 74 71 70 78 76
50 38 54 60 62 51 43 31 35 28 31 35 38 50 59 66 63 70 70 73 74 81 80 78 82 81 79 75 77 78 78 77 76 76 77 78 77 77 76 75 78 77 77 76 74 73 77 79 77
44 53 51 54 50 41 33 26 30 27 26 33 51 64 62 56 60 60 70 70 76 89 87 84 84 80 80 74 73 74 77 76 75 76 76 77 77 76 76 75 79 78 78 77 75 76 78 78 76
53 65 66 61 46 33 29 24 20 28 32 32 37 60 74 59 56 58 66 65 78 82 88 85 84 80 80 78 74 72 73 77 78 74 74 78 77 77 77 78 80 80 78 77 77 76 75 75 75
51 53 56 57 46 33 27 24 27 28 28 25 40 70 69 62 59 54 61 67 65 74 87 85 86 85 86 81 77 74 72 78 76 79 75 76 77 78 78 80 79 80 79 77 77 75 74 71 71
54 62 58 51 47 36 23 27 31 33 28 28 35 70 75 67 59 58 57 61 58 67 83 87 87 85 89 86 83 78 73 80 78 74 78 80 79 81 81 80 78 80 80 78 77 74 73 70 68
60 58 59 52 41 35 24 22 22 27 26 21 30 78 81 63 57 59 61 65 65 74 80 89 93 91 92 92 87 85 81 80 81 79 83 85 86 85 84 83 78 79 78 78 77 75 72 70 67
46 60 63 44 37 30 25 24 21 21 25 23 23 50 53 57 60 66 75 80 81 79 82 92 96 96 97 97 92 89 85 84 85 88 89 89 96 92 90 89 84 79 78 79 76 75 75 71 69
53 61 44 36 37 33 28 29 25 23 24 25 45 66 64 61 65 65 79 87 91 93 93 90 95 96 96 87 96 96 94 96 94 95 95 97 96 97 88 90 87 82 80 81 78 76 76 76 80
51 53 42 35 33 36 27 25 26 30 29 25 32 58 64 66 68 66 71 78 82 86 89 88 89 91 95 96 99 99 99 98 98 95 96 97 93 94 98 98 96 97 89 97 92 89 91 88 82
55 43 38 39 35 34 29 24 26 27 26 24 27 27 34 61 69 69 70 73 80 82 83 82 84 87 92 97 96 96 98 99 99 97 94 97 97 97 99 99 98 97 99 98 98 99 95 91 87
43 39 34 34 33 32 29 31 30 28 25 25 24 25 24 51 64 65 62 63 69 75 78 80 83 83 86 92 97 96 98 98 98 97 97 98 97 97 98 99 99 98 99 98 98 98 97 95 82
36 31 31 30 28 29 29 31 32 25 28 24 23 24 25 38 56 56 51 56 71 67 71 78 80 82 83 88 93 93 97 96 96 95 93 92 94 95 95 97 97 99 99 98 98 98 97 95 76
33 37 35 31 30 30 30 33 33 24 27 25 25 23 22 25 32 39 37 33 46 67 68 76 82 83 88 87 91 96 96 94 94 93 89 89 91 91 90 93 97 97 97 96 98 97 96 90 79
40 45 50 33 32 27 28 40 27 25 30 26 25 27 26 24 23 25 24 25 41 60 69 70 69 82 82 86 88 90 91 94 94 95 96 90 90 90 91 95 96 97 97 97 98 98 98 96 95
56 56 46 38 29 32 34 39 28 28 27 26 24 26 25 25 23 22 25 25 32 59 70 68 72 81 82 84 87 91 90 94 94 97 96 91 89 89 93 93 97 96 98 97 98 99 97 98 98
57 60 48 47 34 31 34 35 31 28 29 27 26 26 26 25 23 21 23 26 30 61 68 65 69 74 78 88 92 97 96 97 97 98 97 93 93 91 95 97 98 98 98 99 98 98 98 98 98
48 51 51 44 35 37 37 37 34 29 30 31 31 29 29 26 22 22 20 23 32 60 73 69 70 80 84 89 94 97 98 97 97 97 94 93 92 93 94 97 98 97 98 98 98 98 98 99 96
52 56 55 45 36 36 34 35 34 33 31 27 25 26 28 25 23 20 19 24 41 50 67 70 73 80 81 81 96 97 97 96 96 96 93 91 91 90 94 95 97 97 98 98 98 97 99 99 98
50 55 51 46 40 41 42 40 36 34 33 30 28 27 25 22 22 20 20 24 43 48 62 68 72 77 84 88 94 98 95 97 97 97 96 94 92 92 94 86 95 98 98 98 97 96 96 99 99
53 42 42 44 50 55 41 57 43 36 35 33 30 29 30 27 28 24 23 26 43 49 57 60 69 76 86 87 89 88 95 96 96 97 96 96 92 94 93 86 91 96 98 98 96 96 96 96 98
45 40 43 46 54 66 55 64 60 42 34 30 30 36 50 46 36 35 36 30 48 59 58 64 71 75 81 84 85 87 92 93 95 95 93 94 94 95 94 94 85 90 97 96 96 97 97 96 96
28 39 46 51 57 70 53 54 42 48 42 36 41 51 49 48 50 71 70 64 73 71 70 66 70 78 79 82 83 84 85 90 94 96 97 97 98 97 92 87 93 92 95 97 97 96 96 97 96
37 54 89 89 82 71 51 59 42 53 82 74 51 46 52 50 72 80 77 75 74 78 80 74 76 84 82 84 85 85 86 88 90 95 98 98 99 98 96 93 95 96 94 95 98 98 97 97 98
34 47 83 92 93 90 73 76 57 74 70 70 73 70 60 55 78 90 91 85 79 80 85 85 84 92 93 94 95 94 92 95 95 96 98 97 96 96 92 92 95 93 90 95 98 98 98 97 98
34 41 28 58 59 95 82 70 58 70 73 72 73 74 91 80 89 93 95 93 89 90 91 92 94 97 96 96 96 96 96 95 96 95 95 96 94 90 92 90 93 90 90 96 99 98 99 98 98
30 32 58 78 99 96 81 86 74 84 83 77 75 68 73 84 91 94 96 94 90 87 89 90 90 93 93 93 91 93 95 95 96 96 93 92 90 90 90 91 91 91 92 93 97 99 99 99 99
35 34 38 74 88 98 91 83 76 82 73 74 71 66 65 71 74 92 95 94 92 91 87 86 88 88 87 87 93 95 95 94 90 87 87 88 86 85 85 87 91 92 92 95 97 98 99 99 99
35 64 83 95 86 91 95 90 62 58 65 59 63 70 66 64 69 78 95 94 94 92 91 87 88 91 90 95 91 89 87 86 89 90 90 87 94 89 86 85 87 90 92 94 97 99 99 98 99